This demonstration page uses our WeatherBlox Daily Observations layout. Learn more.

Left ArrowRight Arrow

Hourly Observations for October 20, 2021

Temp ( °F °C ) Dew Point ( °F °C ) Humidity (%) Winds ( mph kmh ) Pressure ( in mb ) Visibility ( mi km ) Precip ( " mm )
12:15 am 00:15 Clear 52 11.1 49 9.2 88 88 NW 17 28 29.87 1012 10 16 N/A
12:35 am 00:35 Clear 51 10.7 48 8.8 88 88 NW 17 28 29.88 1012 10 16 N/A
12:55 am 00:55 Clear 51 10.5 48 9 91 91 NNW 17 28 29.87 1011 10 16 N/A
1:15 am 01:15 Clear 51 10.5 48 9.1 91 91 NNW 13 20 29.87 1011 10 16 N/A
1:35 am 01:35 Mostly Cloudy 51 10.7 49 9.5 92 92 NNW 12 19 29.89 1012 10 16 N/A
1:55 am 01:55 Cloudy 51 10.6 48 9.1 91 91 NW 15 24 29.90 1012 10 16 N/A
2:15 am 02:15 Cloudy 51 10.5 48 9 91 91 NNW 13 20 29.90 1012 10 16 N/A
2:35 am 02:35 Cloudy 50 10 48 8.7 92 92 NW 13 20 29.93 1014 10 16 N/A
2:55 am 02:55 Cloudy 49 9.6 47 8.4 92 92 NW 16 26 29.95 1014 10 16 N/A
3:15 am 03:15 Cloudy 48 9.1 46 8 93 93 NW 15 24 29.97 1015 10 16 N/A
3:35 am 03:35 Cloudy 48 9.1 46 8 93 93 NW 17 28 29.98 1015 10 16 N/A
3:55 am 03:55 Cloudy 47 8.6 46 7.5 93 93 NW 16 26 29.99 1015 10 16 N/A
4:15 am 04:15 Cloudy 47 8.5 45 7.2 92 92 NNW 14 22 29.98 1015 10 16 N/A
4:35 am 04:35 Cloudy 47 8.3 45 7 92 92 NW 13 20 29.99 1016 10 16 N/A
4:55 am 04:55 Cloudy 47 8.3 44 6.7 90 90 NW 13 20 30.00 1016 10 16 N/A
5:15 am 05:15 Cloudy 46 8 44 6.4 90 90 NW 15 24 30.03 1017 10 16 N/A
5:35 am 05:35 Cloudy 46 8 43 6.3 89 89 NW 10 17 30.03 1017 10 16 N/A
5:55 am 05:55 Cloudy 46 7.8 43 6.1 89 89 NW 10 17 30.03 1017 10 16 N/A
6:15 am 06:15 Cloudy 46 7.6 42 5.7 88 88 NW 15 24 30.04 1017 10 16 N/A
6:35 am 06:35 Cloudy 46 7.6 42 5.6 87 87 NW 14 22 30.04 1017 10 16 N/A
6:55 am 06:55 Cloudy 46 7.6 42 5.5 87 87 WNW 15 24 30.06 1018 10 16 N/A
7:15 am 07:15 Cloudy 45 7.1 41 5.2 88 88 WNW 16 26 30.07 1018 10 16 N/A
7:35 am 07:35 Cloudy 45 7 41 5 87 87 NW 16 26 30.07 1018 10 16 N/A
7:55 am 07:55 Mostly Cloudy 43 6.2 39 4 86 86 WNW 13 20 30.08 1019 10 16 N/A
8:15 am 08:15 Cloudy 43 6.2 39 3.8 85 85 WNW 16 26 30.09 1019 10 16 N/A
8:35 am 08:35 Cloudy 44 6.5 39 4 84 84 WNW 13 20 30.08 1019 10 16 N/A
8:55 am 08:55 Cloudy 44 6.6 39 4 84 84 NW 13 20 30.10 1019 10 16 N/A
9:15 am 09:15 Cloudy 44 6.7 39 3.8 82 82 WNW 15 24 30.10 1019 10 16 N/A
9:35 am 09:35 Cloudy 45 7 38 3.6 79 79 NW 21 33 30.11 1020 10 16 N/A
9:55 am 09:55 Cloudy 45 7.1 38 3.3 77 77 NW 17 28 30.12 1020 10 16 N/A
10:15 am 10:15 Mostly Cloudy 46 7.7 38 3.3 74 74 WNW 24 39 30.11 1020 10 16 N/A
10:35 am 10:35 Partly Cloudy 47 8.2 38 3.3 72 72 WNW 22 35 30.11 1020 10 16 N/A
10:55 am 10:55 Mostly Cloudy 47 8.6 38 3.6 71 71 NW 18 30 30.12 1020 10 16 N/A
11:15 am 11:15 Mostly Cloudy 48 8.7 38 3.3 69 69 WNW 17 28 30.12 1020 10 16 N/A
11:35 am 11:35 Cloudy 47 8.5 37 2.6 67 67 NW 17 28 30.13 1020 10 16 N/A
11:55 am 11:55 Cloudy 48 9.1 37 2.6 64 64 NW 16 26 30.12 1020 10 16 N/A
12:15 pm 12:15 Mostly Cloudy 49 9.5 36 2.2 61 61 NW 16 26 30.13 1020 10 16 N/A
12:35 pm 12:35 Mostly Cloudy 50 9.8 36 2.4 60 60 NW 17 28 30.12 1020 10 16 N/A
12:55 pm 12:55 Mostly Cloudy 50 10 35 1.9 57 57 NW 18 30 30.12 1020 10 16 N/A
1:15 pm 13:15 Mostly Cloudy 51 10.4 35 1.7 55 55 NW 17 28 30.11 1020 10 16 N/A
1:35 pm 13:35 Partly Cloudy 52 10.9 35 1.4 52 52 NW 18 30 30.10 1019 10 16 N/A
1:55 pm 13:55 Sunny 51 10.5 34 1.3 53 53 NW 14 22 30.11 1020 10 16 N/A
2:15 pm 14:15 Partly Cloudy 51 10.6 34 1 52 52 WNW 15 24 30.11 1020 10 16 N/A
2:35 pm 14:35 Partly Cloudy 53 11.5 34 1.3 50 50 NW 16 26 30.09 1019 10 16 N/A
2:55 pm 14:55 Partly Cloudy 53 11.5 34 1 49 49 NW 16 26 30.09 1019 10 16 N/A
3:15 pm 15:15 Partly Cloudy 52 11.3 33 0.8 49 49 NW 16 26 30.09 1019 10 16 N/A
3:35 pm 15:35 Partly Cloudy 53 11.4 33 0.8 48 48 NW 17 28 30.08 1019 10 16 N/A
3:55 pm 15:55 Partly Cloudy 53 11.5 33 0.6 47 47 NW 16 26 30.08 1019 10 16 N/A
4:15 pm 16:15 Mostly Cloudy 53 11.9 33 0.7 47 47 WNW 16 26 30.08 1018 10 16 N/A
4:35 pm 16:35 Mostly Cloudy 51 10.8 33 0.7 50 50 NNW 9 15 30.10 1019 10 16 N/A
4:55 pm 16:55 Mostly Cloudy 52 11 33 0.8 50 50 NW 17 28 30.09 1019 10 16 N/A
5:15 pm 17:15 Partly Cloudy 50 10.2 33 0.8 52 52 NW 15 24 30.10 1019 10 16 N/A
5:35 pm 17:35 Mostly Cloudy 50 10.2 34 1.1 54 54 NW 13 20 30.10 1019 10 16 N/A
5:55 pm 17:55 Cloudy 50 9.9 33 0.8 53 53 NW 15 24 30.11 1020 10 16 N/A
6:15 pm 18:15 Cloudy 49 9.5 33 0.7 55 55 NW 14 22 30.12 1020 10 16 N/A
6:35 pm 18:35 Cloudy 49 9.5 34 1 56 56 NW 12 19 30.13 1020 10 16 N/A
6:55 pm 18:55 Mostly Cloudy 48 8.8 33 0.8 58 58 NW 9 15 30.13 1020 10 16 N/A
7:15 pm 19:15 Mostly Cloudy 47 8.2 34 1 61 61 NW 8 13 30.15 1021 10 16 N/A
7:35 pm 19:35 Partly Cloudy 45 7.3 34 1 65 65 WNW 6 9 30.16 1021 10 16 N/A
7:55 pm 19:55 Partly Cloudy 43 6.3 33 0.7 68 68 NW 5 7 30.18 1022 10 16 N/A
8:15 pm 20:15 Partly Cloudy 42 5.6 33 0.7 71 71 NW 5 7 30.19 1022 10 16 N/A
8:35 pm 20:35 Clear 42 5.4 33 0.7 72 72 NW 5 7 30.19 1023 10 16 N/A
8:55 pm 20:55 Clear 40 4.7 33 0.5 74 74 WNW 5 7 30.20 1023 10 16 N/A
9:15 pm 21:15 Clear 39 3.9 32 0.1 77 77 WNW 3 6 30.21 1023 10 16 N/A
9:35 pm 21:35 Clear 38 3.6 33 0.3 79 79 NW 5 7 30.21 1023 10 16 N/A
9:55 pm 21:55 Clear 39 3.9 33 0.3 78 78 WNW 5 7 30.22 1023 10 16 N/A
10:15 pm 22:15 Clear 37 3 32 undefined 81 81 WNW 6 9 30.24 1024 10 16 N/A
10:35 pm 22:35 Clear 38 3.5 32 0.1 79 79 WNW 6 9 30.23 1024 10 16 N/A
10:55 pm 22:55 Clear 38 3.5 32 undefined 78 78 WNW 7 11 30.23 1024 10 16 N/A
11:15 pm 23:15 Clear 37 2.6 32 -0.1 83 83 NW 7 11 30.24 1024 10 16 N/A
11:35 pm 23:35 Clear 36 2.3 32 undefined 85 85 NW 6 9 30.24 1024 10 16 N/A
11:55 pm 23:55 Clear 37 2.7 32 0.1 83 83 WNW 3 6 30.25 1024 10 16 N/A

Powered by AerisWeather